Weather History for Mineola, TX

Change the Weather History Date:

Tuesday, May 14, 2013

  Actual Average (KTYR) Record (KTYR)
Temperature  
Mean Temperature 74 °F 73 °F  
Max Temperature 86 °F 82 °F 92 °F (1995)
Min Temperature 62 °F 63 °F 41 °F (1971)
Degree Days  
Heating Degree Days 0 0  
Month to date heating degree days 6  
Since 1 July heating degree days 2268  
Cooling Degree Days 9 8  
Month to date cooling degree days 89  
Year to date cooling degree days 201  
Growing Degree Days 24 (Base 50)    
Moisture  
Dew Point 53 °F    
Average Humidity 50    
Maximum Humidity 82    
Minimum Humidity 25    
Precipitation  
Precipitation 0.00 in 0.16 in 4.75 in (1905)
Month to date precipitation 2.17  
Year to date precipitation 16.33  
Snow  
Snow 0.00 in - - ()
Month to date snowfall  
Since 1 July snowfall  
Snow Depth -    
Sea Level Pressure  
Sea Level Pressure 30.13 in    
Wind  
Wind Speed 7 mph (South)    
Max Wind Speed 12 mph    
Max Gust Speed 20 mph    
Visibility 10 miles    
Events      
T = Trace of Precipitation, MM = Missing Value Source: NWS Daily Summary

Daily Weather History Graph

Daily Weather History Graph

Search for Another Location

Airport:

Trip Planner

Search our weather history database for the weather conditions in past years. The results will help you decide how hot, cold, wet, or windy it might be!

Date:

Astronomy

May. 14, 2013 Rise Set
Actual Time 6:23 AM CDT 8:13 PM CDT
Civil Twilight 5:56 AM CDT 8:40 PM CDT
Nautical Twilight 5:23 AM CDT 9:13 PM CDT
Astronomical Twilight 4:49 AM CDT 9:48 PM CDT
Moon 10:03 AM CDT (5/14) No Moon Set
Length of Visible Light 14h 43m
Length of Day
13h 49m
Waxing Crescent, 19% of the Moon is Illuminated
May 14
Waxing Crescent
May 17
First Quarter
May 24
Full
May 31
Last Quarter
Jun 8
New

Hourly Weather History & Observations

Time (CDT) Temp. Heat Index Dew Point Humidity Pressure Visibility Wind Dir Wind Speed Gust Speed Precip Events Conditions
12:15 AM 69.8 °F - 48.2 °F 46% 30.18 in 10.0 mi South 6.9 mph - N/A   Clear
12:35 AM 69.8 °F - 48.2 °F 46% 30.17 in 10.0 mi SSW 8.1 mph - N/A   Clear
12:55 AM 69.8 °F - 48.2 °F 46% 30.17 in 10.0 mi SSW 6.9 mph - N/A   Clear
1:15 AM 68.0 °F - 48.2 °F 49% 30.17 in 10.0 mi SSW 6.9 mph - N/A   Clear
1:35 AM 68.0 °F - 48.2 °F 49% 30.16 in 10.0 mi SSW 8.1 mph - N/A   Clear
1:55 AM 68.0 °F - 48.2 °F 49% 30.15 in 10.0 mi SSW 8.1 mph - N/A   Clear
2:15 AM 66.2 °F - 48.2 °F 52% 30.15 in 10.0 mi SSW 8.1 mph - N/A   Clear
2:35 AM 66.2 °F - 50.0 °F 56% 30.15 in 10.0 mi SSW 8.1 mph - N/A   Clear
2:55 AM 66.2 °F - 51.8 °F 60% 30.15 in 10.0 mi SSW 8.1 mph - N/A   Clear
3:15 AM 66.2 °F - 51.8 °F 60% 30.14 in 10.0 mi SSW 8.1 mph - N/A   Clear
3:35 AM 66.2 °F - 51.8 °F 60% 30.14 in 10.0 mi SSW 8.1 mph - N/A   Clear
3:55 AM 64.4 °F - 51.8 °F 64% 30.14 in 10.0 mi SSW 6.9 mph - N/A   Clear
4:15 AM 64.4 °F - 53.6 °F 68% 30.14 in 10.0 mi SSW 8.1 mph - N/A   Clear
4:35 AM 64.4 °F - 53.6 °F 68% 30.15 in 10.0 mi SSW 6.9 mph - N/A   Clear
4:55 AM 64.4 °F - 53.6 °F 68% 30.15 in 10.0 mi SSW 5.8 mph - N/A   Clear
5:15 AM 64.4 °F - 55.4 °F 73% 30.15 in 10.0 mi SSW 8.1 mph - N/A   Clear
5:35 AM 64.4 °F - 55.4 °F 73% 30.15 in 10.0 mi SSW 8.1 mph - N/A   Clear
5:55 AM 64.4 °F - 55.4 °F 73% 30.16 in 10.0 mi SSW 6.9 mph - N/A   Clear
6:15 AM 62.6 °F - 55.4 °F 77% 30.16 in 10.0 mi SSW 6.9 mph - N/A   Clear
6:35 AM 62.6 °F - 57.2 °F 82% 30.16 in 9.0 mi SSW 6.9 mph - N/A   Clear
6:55 AM 62.6 °F - 57.2 °F 82% 30.16 in 10.0 mi SSW 4.6 mph - N/A   Clear
7:15 AM 64.4 °F - 57.2 °F 77% 30.17 in 9.0 mi SSW 4.6 mph - N/A   Clear
7:35 AM 64.4 °F - 57.2 °F 77% 30.18 in 9.0 mi SSW 8.1 mph - N/A   Clear
7:55 AM 66.2 °F - 57.2 °F 73% 30.18 in 10.0 mi SSW 8.1 mph - N/A   Clear
8:15 AM 66.2 °F - 59.0 °F 78% 30.18 in 10.0 mi SSW 11.5 mph 16.1 mph N/A   Clear
8:35 AM 69.8 °F - 59.0 °F 68% 30.19 in 10.0 mi SSW 4.6 mph - N/A   Clear
8:55 AM 69.8 °F - 59.0 °F 68% 30.19 in 10.0 mi SSW 8.1 mph - N/A   Clear
9:15 AM 71.6 °F - 59.0 °F 64% 30.20 in 10.0 mi SW 6.9 mph - N/A   Clear
9:35 AM 73.4 °F - 59.0 °F 61% 30.20 in 10.0 mi SSW 9.2 mph - N/A   Clear
9:55 AM 73.4 °F - 59.0 °F 61% 30.20 in 10.0 mi SW 6.9 mph - N/A   Clear
10:15 AM 75.2 °F - 59.0 °F 57% 30.20 in 10.0 mi SSW 10.4 mph - N/A   Clear
10:35 AM 75.2 °F - 59.0 °F 57% 30.21 in 10.0 mi SSW 9.2 mph - N/A   Clear
10:55 AM 77.0 °F - 59.0 °F 54% 30.21 in 10.0 mi SSW 10.4 mph - N/A   Clear
11:15 AM 78.8 °F - 59.0 °F 51% 30.20 in 10.0 mi SSE 6.9 mph - N/A   Clear
11:35 AM 78.8 °F - 57.2 °F 47% 30.20 in 10.0 mi SSW 9.2 mph - N/A   Clear
11:55 AM 80.6 °F 80.8 °F 57.2 °F 45% 30.20 in 10.0 mi SSW 5.8 mph - N/A   Clear
12:15 PM 80.6 °F 80.3 °F 53.6 °F 39% 30.19 in 10.0 mi South 9.2 mph - N/A   Clear
12:35 PM 80.6 °F 80.3 °F 53.6 °F 39% 30.18 in 10.0 mi Calm Calm - N/A   Clear
12:55 PM 82.4 °F - 50.0 °F 32% 30.17 in 10.0 mi SW 9.2 mph - N/A   Clear
1:15 PM 82.4 °F - 51.8 °F 35% 30.16 in 10.0 mi South 9.2 mph 18.4 mph N/A   Clear
1:35 PM 82.4 °F - 48.2 °F 30% 30.15 in 10.0 mi South 9.2 mph - N/A   Clear
1:55 PM 84.2 °F - 50.0 °F 30% 30.14 in 10.0 mi South 6.9 mph 17.3 mph N/A   Clear
2:15 PM 84.2 °F - 46.4 °F 27% 30.13 in 10.0 mi SSW 8.1 mph - N/A   Clear
2:35 PM 84.2 °F - 48.2 °F 29% 30.12 in 10.0 mi SSE 11.5 mph 17.3 mph N/A   Clear
2:55 PM 86.0 °F - 46.4 °F 25% 30.12 in 10.0 mi South 11.5 mph 16.1 mph N/A   Clear
3:15 PM 84.2 °F - 48.2 °F 29% 30.11 in 9.0 mi South 10.4 mph - N/A   Clear
3:35 PM 84.2 °F - 48.2 °F 29% 30.10 in 10.0 mi South 11.5 mph 19.6 mph N/A   Clear
3:55 PM 86.0 °F - 46.4 °F 25% 30.09 in 10.0 mi SSW 5.8 mph - N/A   Clear
4:15 PM 86.0 °F - 46.4 °F 25% 30.09 in 10.0 mi SSE 11.5 mph 18.4 mph N/A   Clear
4:35 PM 86.0 °F - 48.2 °F 27% 30.08 in 10.0 mi South 8.1 mph 17.3 mph N/A   Clear
4:55 PM 84.2 °F - 48.2 °F 29% 30.08 in 10.0 mi SSW 6.9 mph 16.1 mph N/A   Clear
5:15 PM 84.2 °F - 46.4 °F 27% 30.07 in 10.0 mi South 11.5 mph 19.6 mph N/A   Clear
5:35 PM 84.2 °F - 48.2 °F 29% 30.06 in 10.0 mi South 9.2 mph 16.1 mph N/A   Clear
5:55 PM 84.2 °F - 48.2 °F 29% 30.06 in 10.0 mi South 10.4 mph - N/A   Clear
6:15 PM 84.2 °F - 50.0 °F 30% 30.05 in 10.0 mi South 9.2 mph - N/A   Clear
6:35 PM 82.4 °F - 50.0 °F 32% 30.05 in 10.0 mi South 9.2 mph - N/A   Clear
6:55 PM 82.4 °F - 51.8 °F 35% 30.05 in 10.0 mi SSE 5.8 mph - N/A   Clear
7:15 PM 82.4 °F - 51.8 °F 35% 30.04 in 10.0 mi SSE 8.1 mph - N/A   Clear
7:35 PM 80.6 °F - 51.8 °F 37% 30.04 in 10.0 mi SSE 8.1 mph - N/A   Clear
7:55 PM 78.8 °F - 50.0 °F 36% 30.04 in 10.0 mi SSE 5.8 mph - N/A   Clear
8:15 PM - - - N/A% - - North - - N/A   Unknown
8:35 PM 77.0 °F - 51.8 °F 41% 30.05 in 10.0 mi SSE 3.5 mph - N/A   Unknown
8:55 PM 75.2 °F - 51.8 °F 44% 30.05 in 10.0 mi Calm Calm - N/A   Clear
9:15 PM 75.2 °F - 53.6 °F 47% 30.05 in 10.0 mi Calm Calm - N/A   Clear
9:35 PM 73.4 °F - 53.6 °F 50% 30.05 in 10.0 mi Calm Calm - N/A   Clear
9:55 PM 71.6 °F - 53.6 °F 53% 30.06 in 10.0 mi Calm Calm - N/A   Clear
10:15 PM 69.8 °F - 55.4 °F 60% 30.07 in 10.0 mi Calm Calm - N/A   Clear
10:35 PM 68.0 °F - 55.4 °F 64% 30.09 in 10.0 mi Calm Calm - N/A   Clear
10:55 PM 71.6 °F - 55.4 °F 57% 30.08 in 10.0 mi SSE 4.6 mph - N/A   Clear
11:15 PM 73.4 °F - 53.6 °F 50% 30.08 in 10.0 mi SSE 6.9 mph - N/A   Clear
11:35 PM 73.4 °F - 53.6 °F 50% 30.09 in 10.0 mi SSE 5.8 mph - N/A   Clear
11:55 PM 71.6 °F - 51.8 °F 50% 30.08 in 10.0 mi SSE 8.1 mph - N/A   Clear